Year,Month,Day,Hour,Minute,Value (Times are PST for temperature in C)
2009,07,23,10,05,17.60
2009,07,23,10,06,17.60
2009,07,23,10,07,17.70
2009,07,23,10,08,17.80
2009,07,23,10,09,17.90
2009,07,23,10,10,17.90
2009,07,23,10,11,18.00
2009,07,23,10,12,18.10
2009,07,23,10,13,18.10
2009,07,23,10,14,18.20
2009,07,23,10,15,18.20
2009,07,23,10,17,18.30
2009,07,23,10,18,18.40
2009,07,23,10,19,18.40
2009,07,23,10,20,18.50
2009,07,23,10,21,18.60
2009,07,23,10,22,18.60
2009,07,23,10,23,18.70
2009,07,23,10,24,18.70
2009,07,23,10,25,18.70
2009,07,23,10,26,18.80
2009,07,23,10,27,18.80
2009,07,23,10,28,18.80
2009,07,23,10,29,18.80
2009,07,23,10,30,18.80
2009,07,23,10,31,18.90
2009,07,23,10,32,18.90
2009,07,23,10,33,18.90
2009,07,23,10,34,18.90
2009,07,23,10,35,18.90
2009,07,23,10,36,19.00
2009,07,23,10,37,19.10
2009,07,23,10,38,19.20
2009,07,23,10,39,19.30
2009,07,23,10,40,19.30
2009,07,23,10,41,19.50
2009,07,23,10,42,19.60
2009,07,23,10,43,19.70
2009,07,23,10,44,19.80
2009,07,23,10,45,19.90
2009,07,23,10,46,20.00
2009,07,23,10,47,20.10
2009,07,23,10,48,20.10
2009,07,23,10,49,20.20
2009,07,23,10,50,20.20
2009,07,23,10,51,20.20
2009,07,23,10,52,20.30
2009,07,23,10,53,20.30
2009,07,23,10,54,20.40
2009,07,23,10,55,20.40
2009,07,23,10,56,20.40
2009,07,23,10,57,20.50
2009,07,23,10,58,20.50
2009,07,23,10,59,20.50
2009,07,23,11,00,20.50
2009,07,23,11,01,20.50
2009,07,23,11,02,20.50
2009,07,23,11,03,20.50
2009,07,23,11,04,20.50
2009,07,23,11,05,20.50
2009,07,23,11,06,20.50
2009,07,23,11,07,20.60
2009,07,23,11,08,20.60
2009,07,23,11,09,20.60
2009,07,23,11,10,20.50
2009,07,23,11,11,20.50
2009,07,23,11,12,20.40
2009,07,23,11,13,20.40
2009,07,23,11,14,20.40
2009,07,23,11,15,20.40
2009,07,23,11,16,20.50
2009,07,23,11,17,20.50
2009,07,23,11,18,20.60
2009,07,23,11,19,20.70
2009,07,23,11,20,20.70
2009,07,23,11,21,20.80
2009,07,23,11,22,20.80
2009,07,23,11,23,20.90
2009,07,23,11,24,21.00
2009,07,23,11,25,21.10
2009,07,23,11,26,21.20
2009,07,23,11,27,21.30
2009,07,23,11,28,21.40
2009,07,23,11,29,21.50
2009,07,23,11,30,21.60
2009,07,23,11,31,21.70
2009,07,23,11,32,21.70
2009,07,23,11,33,21.70
2009,07,23,11,34,21.60
2009,07,23,11,35,21.60
2009,07,23,11,36,21.50
2009,07,23,11,37,21.30
2009,07,23,11,38,21.20
2009,07,23,11,39,21.10
2009,07,23,11,40,21.00
2009,07,23,11,41,21.00
2009,07,23,11,42,21.00
2009,07,23,11,43,21.00
2009,07,23,11,44,21.00
2009,07,23,11,45,21.00
2009,07,23,11,46,21.00
2009,07,23,11,47,21.10
2009,07,23,11,48,21.10
2009,07,23,11,49,21.20
2009,07,23,11,50,21.20
2009,07,23,11,51,21.30
2009,07,23,11,52,21.40
2009,07,23,11,53,21.40
2009,07,23,11,54,21.40
2009,07,23,11,55,21.40
2009,07,23,11,56,21.40
2009,07,23,11,57,21.50
2009,07,23,11,58,21.50
2009,07,23,11,59,21.50
2009,07,23,12,00,21.50
2009,07,23,12,01,21.50
2009,07,23,12,02,21.60
2009,07,23,12,03,21.60
2009,07,23,12,04,21.70
2009,07,23,12,05,21.70
2009,07,23,12,06,21.80
2009,07,23,12,07,21.80
2009,07,23,12,08,21.90
2009,07,23,12,09,22.00
2009,07,23,12,10,22.10
2009,07,23,12,11,22.10
2009,07,23,12,12,22.20
2009,07,23,12,13,22.30
2009,07,23,12,14,22.40
2009,07,23,12,15,22.40
2009,07,23,12,16,22.40
2009,07,23,12,17,22.40
2009,07,23,12,18,22.50
2009,07,23,12,19,22.50
2009,07,23,12,20,22.60
2009,07,23,12,21,22.60
2009,07,23,12,22,22.60
2009,07,23,12,23,22.50
2009,07,23,12,24,22.50
2009,07,23,12,25,22.50
2009,07,23,12,26,22.40
2009,07,23,12,27,22.40
2009,07,23,12,28,22.40
2009,07,23,12,29,22.30
2009,07,23,12,30,22.40
2009,07,23,12,31,22.40
2009,07,23,12,32,22.40
2009,07,23,12,33,22.40
2009,07,23,12,34,22.30
2009,07,23,12,35,22.40
2009,07,23,12,36,22.40
2009,07,23,12,37,22.30
2009,07,23,12,38,22.30
2009,07,23,12,39,22.40
2009,07,23,12,40,22.40
2009,07,23,12,41,22.50
2009,07,23,12,42,22.50
2009,07,23,12,43,22.60
2009,07,23,12,44,22.70
2009,07,23,12,45,22.70
2009,07,23,12,46,22.70
2009,07,23,12,47,22.70
2009,07,23,12,48,22.80
2009,07,23,12,49,22.80
2009,07,23,12,50,22.80
2009,07,23,12,51,22.90
2009,07,23,12,52,22.80
2009,07,23,12,53,22.80
2009,07,23,12,54,22.70
2009,07,23,12,55,22.70
2009,07,23,12,56,22.70
2009,07,23,12,57,22.70
2009,07,23,12,58,22.70
2009,07,23,12,59,22.70
2009,07,23,13,00,22.70
2009,07,23,13,01,22.80
2009,07,23,13,02,22.70
2009,07,23,13,03,22.70
2009,07,23,13,04,22.70
2009,07,23,13,05,22.60
2009,07,23,13,06,22.60
2009,07,23,13,07,22.60
2009,07,23,13,08,22.60
2009,07,23,13,09,22.50
2009,07,23,13,10,22.40
2009,07,23,13,11,22.40
2009,07,23,13,12,22.30
2009,07,23,13,13,22.30
2009,07,23,13,14,22.30
2009,07,23,13,15,22.20
2009,07,23,13,16,22.20
2009,07,23,13,17,22.30
2009,07,23,13,18,22.30
2009,07,23,13,19,22.30
2009,07,23,13,20,22.30
2009,07,23,13,21,22.40
2009,07,23,13,22,22.40
2009,07,23,13,23,22.50
2009,07,23,13,24,22.60
2009,07,23,13,25,22.70
2009,07,23,13,26,22.70
2009,07,23,13,27,22.80
2009,07,23,13,28,22.80
2009,07,23,13,29,22.80
2009,07,23,13,30,22.80
2009,07,23,13,31,22.80
2009,07,23,13,32,22.80
2009,07,23,13,33,22.80
2009,07,23,13,34,22.80
2009,07,23,13,35,22.80
2009,07,23,13,36,22.80
2009,07,23,13,37,22.80
2009,07,23,13,38,22.90
2009,07,23,13,39,22.90
2009,07,23,13,40,23.00
2009,07,23,13,41,23.00
2009,07,23,13,42,23.00
2009,07,23,13,43,23.00
2009,07,23,13,44,22.90
2009,07,23,13,45,22.80
2009,07,23,13,46,22.70
2009,07,23,13,47,22.60
2009,07,23,13,48,22.50
2009,07,23,13,49,22.40
2009,07,23,13,50,22.40
2009,07,23,13,51,22.30
2009,07,23,13,52,22.30
2009,07,23,13,53,22.30
2009,07,23,13,54,22.30
2009,07,23,13,55,22.30
2009,07,23,13,56,22.30
2009,07,23,13,57,22.30
2009,07,23,13,58,22.40
2009,07,23,13,59,22.50
2009,07,23,14,00,22.60
2009,07,23,14,01,22.60
2009,07,23,14,02,22.70
2009,07,23,14,03,22.80
2009,07,23,14,04,22.90
2009,07,23,14,05,23.00
2009,07,23,14,06,23.10
2009,07,23,14,07,23.20
2009,07,23,14,08,23.30
2009,07,23,14,09,23.30
2009,07,23,14,10,23.40
2009,07,23,14,11,23.50
2009,07,23,14,12,23.50
2009,07,23,14,13,23.60
2009,07,23,14,14,23.60
2009,07,23,14,15,23.60
2009,07,23,14,16,23.60
2009,07,23,14,17,23.60
2009,07,23,14,18,23.60
2009,07,23,14,19,23.60
2009,07,23,14,20,23.60
2009,07,23,14,21,23.60
2009,07,23,14,22,23.70
2009,07,23,14,23,23.80
2009,07,23,14,24,23.80
2009,07,23,14,25,23.80
2009,07,23,14,26,23.90
2009,07,23,14,27,24.00
2009,07,23,14,28,24.00
2009,07,23,14,29,24.10
2009,07,23,14,30,24.10
2009,07,23,14,31,24.10
2009,07,23,14,32,24.10
2009,07,23,14,33,24.20
2009,07,23,14,34,24.20
2009,07,23,14,35,24.10
2009,07,23,14,36,24.10
2009,07,23,14,37,24.10
2009,07,23,14,38,24.10
2009,07,23,14,39,24.10
2009,07,23,14,40,24.10
2009,07,23,14,41,24.10
2009,07,23,14,42,24.10
2009,07,23,14,43,24.10
2009,07,23,14,44,24.10
2009,07,23,14,45,24.10
2009,07,23,14,46,24.10
2009,07,23,14,47,24.10
2009,07,23,14,48,24.10
2009,07,23,14,49,24.20
2009,07,23,14,50,24.20
2009,07,23,14,51,24.20
2009,07,23,14,52,24.20
2009,07,23,14,53,24.20
2009,07,23,14,54,24.10
2009,07,23,14,55,24.00
2009,07,23,14,56,23.90
2009,07,23,14,57,23.90
2009,07,23,14,58,23.90
2009,07,23,14,59,23.90
2009,07,23,15,00,23.80
2009,07,23,15,01,23.80
2009,07,23,15,02,23.70
2009,07,23,15,03,23.70
2009,07,23,15,04,23.70
2009,07,23,15,05,23.80
2009,07,23,15,06,23.90
2009,07,23,15,07,24.00
2009,07,23,15,08,24.10
2009,07,23,15,09,24.20
2009,07,23,15,10,24.20
2009,07,23,15,11,24.20
2009,07,23,15,12,24.20
2009,07,23,15,13,24.30
2009,07,23,15,14,24.30
2009,07,23,15,15,24.30
2009,07,23,15,16,24.30
2009,07,23,15,17,24.30
2009,07,23,15,18,24.20
2009,07,23,15,19,24.20
2009,07,23,15,20,24.20
2009,07,23,15,21,24.30
2009,07,23,15,22,24.30
2009,07,23,15,23,24.40
2009,07,23,15,24,24.40
2009,07,23,15,25,24.40
2009,07,23,15,26,24.50
2009,07,23,15,27,24.60
2009,07,23,15,28,24.60
2009,07,23,15,29,24.70
2009,07,23,15,30,24.70
2009,07,23,15,31,24.70
2009,07,23,15,32,24.70
2009,07,23,15,33,24.70
2009,07,23,15,34,24.80
2009,07,23,15,35,24.80
2009,07,23,15,36,24.90
2009,07,23,15,37,24.90
2009,07,23,15,38,24.80
2009,07,23,15,39,24.70
2009,07,23,15,40,24.60
2009,07,23,15,41,24.50
2009,07,23,15,42,24.50
2009,07,23,15,43,24.50
2009,07,23,15,44,24.40
2009,07,23,15,45,24.40
2009,07,23,15,46,24.40
2009,07,23,15,47,24.50
2009,07,23,15,48,24.60
2009,07,23,15,49,24.70
2009,07,23,15,50,24.70
2009,07,23,15,51,24.80
2009,07,23,15,52,24.90
2009,07,23,15,53,24.90
2009,07,23,15,54,25.00
2009,07,23,15,55,25.00
2009,07,23,15,56,25.00
2009,07,23,15,57,25.10
2009,07,23,15,58,25.10
2009,07,23,15,59,25.10
2009,07,23,16,00,25.20
2009,07,23,16,01,25.20
2009,07,23,16,02,25.20
2009,07,23,16,03,25.10
2009,07,23,16,04,25.10
2009,07,23,16,05,25.00
2009,07,23,16,06,25.00
2009,07,23,16,07,24.90
2009,07,23,16,08,24.90
2009,07,23,16,09,24.80
2009,07,23,16,10,24.80
2009,07,23,16,11,24.60
2009,07,23,16,12,24.60
2009,07,23,16,13,24.50
2009,07,23,16,14,24.50
2009,07,23,16,15,24.40
2009,07,23,16,16,24.40
2009,07,23,16,17,24.40
2009,07,23,16,18,24.40
2009,07,23,16,19,24.40
2009,07,23,16,20,24.40
2009,07,23,16,21,24.40
2009,07,23,16,22,24.40
2009,07,23,16,23,24.40
2009,07,23,16,24,24.30
2009,07,23,16,25,24.30
2009,07,23,16,26,24.30
2009,07,23,16,27,24.20
2009,07,23,16,28,24.10
2009,07,23,16,29,24.00
2009,07,23,16,30,23.90
2009,07,23,16,31,23.70
2009,07,23,16,32,23.60
2009,07,23,16,33,23.50
2009,07,23,16,34,23.30
2009,07,23,16,35,23.30
2009,07,23,16,36,23.20
2009,07,23,16,37,23.10
2009,07,23,16,38,23.10
2009,07,23,16,39,23.00
2009,07,23,16,40,23.00
2009,07,23,16,41,22.90
2009,07,23,16,42,23.00
2009,07,23,16,43,23.10
2009,07,23,16,44,23.20
2009,07,23,16,45,23.20
2009,07,23,16,46,23.20
2009,07,23,16,47,23.20
2009,07,23,16,48,23.20
2009,07,23,16,49,23.20
2009,07,23,16,50,23.30
2009,07,23,16,51,23.40
2009,07,23,16,52,23.50
2009,07,23,16,53,23.50
2009,07,23,16,54,23.60
2009,07,23,16,55,23.60
2009,07,23,16,56,23.70
2009,07,23,16,57,23.70
2009,07,23,16,58,23.80
2009,07,23,16,59,23.80
2009,07,23,17,00,23.90
2009,07,23,17,01,23.90
2009,07,23,17,02,23.90
2009,07,23,17,03,23.80
2009,07,23,17,04,23.80
2009,07,23,17,05,23.80
2009,07,23,17,06,23.80
2009,07,23,17,07,23.90
2009,07,23,17,08,23.90
2009,07,23,17,09,24.00
2009,07,23,17,10,24.00
2009,07,23,17,11,24.10
2009,07,23,17,12,24.10
2009,07,23,17,13,24.20
2009,07,23,17,14,24.20
2009,07,23,17,15,24.20
2009,07,23,17,16,24.00
2009,07,23,17,17,23.90
2009,07,23,17,18,23.90
2009,07,23,17,19,23.90
2009,07,23,17,20,23.90
2009,07,23,17,21,24.00
2009,07,23,17,22,24.00
2009,07,23,17,23,24.10
2009,07,23,17,24,24.10
2009,07,23,17,25,24.10
2009,07,23,17,26,24.20
2009,07,23,17,27,24.20
2009,07,23,17,28,24.20
2009,07,23,17,29,24.30
2009,07,23,17,30,24.30
2009,07,23,17,31,24.30
2009,07,23,17,32,24.30
2009,07,23,17,33,24.30
2009,07,23,17,34,24.30
2009,07,23,17,35,24.40
2009,07,23,17,36,24.40
2009,07,23,17,37,24.50
2009,07,23,17,38,24.50
2009,07,23,17,39,24.60
2009,07,23,17,40,24.50
2009,07,23,17,41,24.50
2009,07,23,17,42,24.50
2009,07,23,17,43,24.50
2009,07,23,17,44,24.50
2009,07,23,17,45,24.60
2009,07,23,17,46,24.60
2009,07,23,17,47,24.60
2009,07,23,17,48,24.70
2009,07,23,17,49,24.70
2009,07,23,17,50,24.70
2009,07,23,17,51,24.70
2009,07,23,17,52,24.70
2009,07,23,17,53,24.70
2009,07,23,17,54,24.80
2009,07,23,17,55,24.80
2009,07,23,17,56,24.80
2009,07,23,17,57,24.90
2009,07,23,17,58,24.90
2009,07,23,17,59,25.00
2009,07,23,18,00,25.00
2009,07,23,18,01,25.00
2009,07,23,18,02,25.00
2009,07,23,18,03,25.00
2009,07,23,18,04,25.00
2009,07,23,18,05,25.00
2009,07,23,18,06,25.00
2009,07,23,18,07,25.00
2009,07,23,18,08,25.00
2009,07,23,18,09,25.00
2009,07,23,18,10,25.00
2009,07,23,18,11,25.00
2009,07,23,18,12,24.90
2009,07,23,18,13,24.90
2009,07,23,18,14,24.90
2009,07,23,18,15,24.90
2009,07,23,18,16,24.80
2009,07,23,18,17,24.80
2009,07,23,18,18,24.80
2009,07,23,18,19,24.80
2009,07,23,18,20,24.80
2009,07,23,18,21,24.70
2009,07,23,18,22,24.70
2009,07,23,18,23,24.70
2009,07,23,18,24,24.70
2009,07,23,18,25,24.70
2009,07,23,18,26,24.60
2009,07,23,18,27,24.60
2009,07,23,18,28,24.60
2009,07,23,18,29,24.50
2009,07,23,18,30,24.50
2009,07,23,18,31,24.50
2009,07,23,18,32,24.40
2009,07,23,18,33,24.40
2009,07,23,18,34,24.30
2009,07,23,18,35,24.20
2009,07,23,18,36,24.20
2009,07,23,18,37,24.10
2009,07,23,18,38,24.00
2009,07,23,18,39,24.00
2009,07,23,18,40,24.00
2009,07,23,18,41,23.90
2009,07,23,18,42,23.90
2009,07,23,18,43,23.90
2009,07,23,18,44,23.90
2009,07,23,18,45,23.90
2009,07,23,18,46,23.90
2009,07,23,18,47,23.80
2009,07,23,18,48,23.80
2009,07,23,18,49,23.80
2009,07,23,18,50,23.80
2009,07,23,18,51,23.80
2009,07,23,18,52,23.70
2009,07,23,18,53,23.70
2009,07,23,18,54,23.70
2009,07,23,18,55,23.70
2009,07,23,18,56,23.60
2009,07,23,18,57,23.60
2009,07,23,18,58,23.60
2009,07,23,18,59,23.60
2009,07,23,19,00,23.60
2009,07,23,19,01,23.60
2009,07,23,19,02,23.50
2009,07,23,19,03,23.50
2009,07,23,19,04,23.40
2009,07,23,19,05,23.40
2009,07,23,19,06,23.40
2009,07,23,19,07,23.30
2009,07,23,19,08,23.30
2009,07,23,19,09,23.30
2009,07,23,19,10,23.30
2009,07,23,19,11,23.30
2009,07,23,19,12,23.30
2009,07,23,19,13,23.30
2009,07,23,19,14,23.30
2009,07,23,19,15,23.30
2009,07,23,19,16,23.30
2009,07,23,19,17,23.30
2009,07,23,19,18,23.30
2009,07,23,19,19,23.30
2009,07,23,19,20,23.30
2009,07,23,19,21,23.20
2009,07,23,19,22,23.20
2009,07,23,19,23,23.20
2009,07,23,19,24,23.20
2009,07,23,19,25,23.20
2009,07,23,19,26,23.20
2009,07,23,19,27,23.10
2009,07,23,19,28,23.10
2009,07,23,19,29,23.10
2009,07,23,19,30,23.10
2009,07,23,19,31,23.10
2009,07,23,19,32,23.10
2009,07,23,19,33,23.10
2009,07,23,19,34,23.10
2009,07,23,19,35,23.00
2009,07,23,19,36,23.00
2009,07,23,19,37,22.90
2009,07,23,19,38,22.90
2009,07,23,19,39,22.80
2009,07,23,19,40,22.80
2009,07,23,19,41,22.80
2009,07,23,19,42,22.70
2009,07,23,19,43,22.60
2009,07,23,19,44,22.60
2009,07,23,19,45,22.50
2009,07,23,19,46,22.40
2009,07,23,19,47,22.40
2009,07,23,19,48,22.30
2009,07,23,19,49,22.30
2009,07,23,19,50,22.20
2009,07,23,19,51,22.20
2009,07,23,19,52,22.20
2009,07,23,19,53,22.10
2009,07,23,19,54,22.10
2009,07,23,19,55,22.10
2009,07,23,19,56,22.10
2009,07,23,19,57,22.10
2009,07,23,19,58,22.10
2009,07,23,19,59,22.10
2009,07,23,20,00,22.10
2009,07,23,20,01,22.00
2009,07,23,20,02,22.00
2009,07,23,20,03,22.00
2009,07,23,20,04,22.00
2009,07,23,20,05,22.00
2009,07,23,20,06,22.00
2009,07,23,20,07,21.90
2009,07,23,20,08,21.90
2009,07,23,20,09,21.90
2009,07,23,20,10,21.90
2009,07,23,20,11,21.80
2009,07,23,20,12,21.80
2009,07,23,20,13,21.80
2009,07,23,20,14,21.80
2009,07,23,20,15,21.80
2009,07,23,20,16,21.70
2009,07,23,20,17,21.70
2009,07,23,20,18,21.70
2009,07,23,20,19,21.70
2009,07,23,20,20,21.60
2009,07,23,20,21,21.60
2009,07,23,20,22,21.60
2009,07,23,20,23,21.60
2009,07,23,20,24,21.50
2009,07,23,20,25,21.50
2009,07,23,20,26,21.40
2009,07,23,20,27,21.40
2009,07,23,20,28,21.40
2009,07,23,20,29,21.30
2009,07,23,20,30,21.30
2009,07,23,20,31,21.20
2009,07,23,20,32,21.10
2009,07,23,20,33,21.10
2009,07,23,20,34,21.00
2009,07,23,20,35,20.90
2009,07,23,20,36,20.80
2009,07,23,20,37,20.80
2009,07,23,20,38,20.70
2009,07,23,20,39,20.70
2009,07,23,20,40,20.60
2009,07,23,20,41,20.50
2009,07,23,20,42,20.50
2009,07,23,20,43,20.40
2009,07,23,20,44,20.30
2009,07,23,20,45,20.30
2009,07,23,20,46,20.10
2009,07,23,20,47,20.00
2009,07,23,20,48,20.00
2009,07,23,20,49,19.90
2009,07,23,20,50,19.80
2009,07,23,20,51,19.70
2009,07,23,20,52,19.60
2009,07,23,20,53,19.50
2009,07,23,20,54,19.40
2009,07,23,20,55,19.30
2009,07,23,20,56,19.20
2009,07,23,20,57,19.20
2009,07,23,20,58,19.10
2009,07,23,20,59,19.10
2009,07,23,21,00,19.00
2009,07,23,21,01,19.00
2009,07,23,21,02,18.90
2009,07,23,21,03,18.90
2009,07,23,21,04,18.90
2009,07,23,21,05,18.80
2009,07,23,21,06,18.80
2009,07,23,21,07,18.70
2009,07,23,21,08,18.70
2009,07,23,21,09,18.70
2009,07,23,21,10,18.60
2009,07,23,21,11,18.60
2009,07,23,21,12,18.60
2009,07,23,21,13,18.50
2009,07,23,21,14,18.50
2009,07,23,21,15,18.50
2009,07,23,21,16,18.40
2009,07,23,21,17,18.40
2009,07,23,21,18,18.40
2009,07,23,21,19,18.40
2009,07,23,21,20,18.40
2009,07,23,21,21,18.30
2009,07,23,21,22,18.30
2009,07,23,21,23,18.30
2009,07,23,21,24,18.30
2009,07,23,21,25,18.30
2009,07,23,21,26,18.30
2009,07,23,21,27,18.30
2009,07,23,21,28,18.30
2009,07,23,21,29,18.20
2009,07,23,21,30,18.20
2009,07,23,21,31,18.20
2009,07,23,21,32,18.20
2009,07,23,21,33,18.20
2009,07,23,21,34,18.10
2009,07,23,21,35,18.10
2009,07,23,21,36,18.10
2009,07,23,21,37,18.10
2009,07,23,21,38,18.00
2009,07,23,21,39,18.00
2009,07,23,21,40,18.00
2009,07,23,21,41,17.90
2009,07,23,21,42,17.90
2009,07,23,21,43,17.90
2009,07,23,21,44,17.80
2009,07,23,21,45,17.80
2009,07,23,21,46,17.80
2009,07,23,21,47,17.80
2009,07,23,21,48,17.80
2009,07,23,21,49,17.70
2009,07,23,21,50,17.70
2009,07,23,21,51,17.70
2009,07,23,21,52,17.70
2009,07,23,21,53,17.70
2009,07,23,21,54,17.70
2009,07,23,21,55,17.70
2009,07,23,21,56,17.70
2009,07,23,21,57,17.60
2009,07,23,21,58,17.60
2009,07,23,21,59,17.60
2009,07,23,22,00,17.50
2009,07,23,22,01,17.50
2009,07,23,22,02,17.40
2009,07,23,22,03,17.40
2009,07,23,22,04,17.30
2009,07,23,22,05,17.30
2009,07,23,22,06,17.20
2009,07,23,22,07,17.20
2009,07,23,22,08,17.10
2009,07,23,22,09,17.10
2009,07,23,22,10,17.00
2009,07,23,22,11,16.90
2009,07,23,22,12,16.90
2009,07,23,22,13,16.80
2009,07,23,22,14,16.80
2009,07,23,22,15,16.80
2009,07,23,22,16,16.80
2009,07,23,22,17,16.80
2009,07,23,22,18,16.80
2009,07,23,22,19,16.70
2009,07,23,22,20,16.70
2009,07,23,22,21,16.70
2009,07,23,22,22,16.70
2009,07,23,22,23,16.70
2009,07,23,22,24,16.70
2009,07,23,22,25,16.70
2009,07,23,22,26,16.70
2009,07,23,22,27,16.70
2009,07,23,22,28,16.70
2009,07,23,22,29,16.70
2009,07,23,22,30,16.70
2009,07,23,22,31,16.70
2009,07,23,22,32,16.70
2009,07,23,22,33,16.70
2009,07,23,22,34,16.60
2009,07,23,22,35,16.60
2009,07,23,22,36,16.60
2009,07,23,22,37,16.60
2009,07,23,22,38,16.60
2009,07,23,22,39,16.60
2009,07,23,22,40,16.60
2009,07,23,22,41,16.60
2009,07,23,22,42,16.60
2009,07,23,22,43,16.60
2009,07,23,22,44,16.60
2009,07,23,22,45,16.60
2009,07,23,22,46,16.60
2009,07,23,22,47,16.60
2009,07,23,22,48,16.60
2009,07,23,22,49,16.60
2009,07,23,22,50,16.60
2009,07,23,22,51,16.60
2009,07,23,22,52,16.60
2009,07,23,22,53,16.50
2009,07,23,22,54,16.60
2009,07,23,22,55,16.60
2009,07,23,22,56,16.50
2009,07,23,22,57,16.60
2009,07,23,22,58,16.60
2009,07,23,22,59,16.60
2009,07,23,23,00,16.60
2009,07,23,23,01,16.60
2009,07,23,23,02,16.60
2009,07,23,23,03,16.60
2009,07,23,23,04,16.60
2009,07,23,23,05,16.60
2009,07,23,23,06,16.60
2009,07,23,23,07,16.60
2009,07,23,23,08,16.60
2009,07,23,23,09,16.60
2009,07,23,23,10,16.60
2009,07,23,23,11,16.60
2009,07,23,23,12,16.60
2009,07,23,23,13,16.60
2009,07,23,23,14,16.60
2009,07,23,23,15,16.60
2009,07,23,23,16,16.60
2009,07,23,23,17,16.60
2009,07,23,23,18,16.60
2009,07,23,23,19,16.60
2009,07,23,23,20,16.60
2009,07,23,23,21,16.60
2009,07,23,23,22,16.60
2009,07,23,23,23,16.60
2009,07,23,23,24,16.60
2009,07,23,23,25,16.60
2009,07,23,23,26,16.60
2009,07,23,23,27,16.60
2009,07,23,23,28,16.60
2009,07,23,23,29,16.60
2009,07,23,23,30,16.60
2009,07,23,23,31,16.60
2009,07,23,23,32,16.60
2009,07,23,23,33,16.60
2009,07,23,23,34,16.60
2009,07,23,23,35,16.60
2009,07,23,23,36,16.60
2009,07,23,23,37,16.60
2009,07,23,23,38,16.60
2009,07,23,23,39,16.60
2009,07,23,23,40,16.50
2009,07,23,23,41,16.50
2009,07,23,23,42,16.50
2009,07,23,23,43,16.50
2009,07,23,23,44,16.50
2009,07,23,23,45,16.50
2009,07,23,23,46,16.50
2009,07,23,23,47,16.40
2009,07,23,23,48,16.40
2009,07,23,23,49,16.40
2009,07,23,23,50,16.40
2009,07,23,23,51,16.40
2009,07,23,23,52,16.40
2009,07,23,23,53,16.40
2009,07,23,23,54,16.40
2009,07,23,23,55,16.40
2009,07,23,23,56,16.40
2009,07,23,23,57,16.40
2009,07,23,23,58,16.40
2009,07,23,23,59,16.40
